Location: Albany
(35.0170°S, 117.8920°E)
Time: 16:48:42
(UTC+08:00)

Transit 2A - Pass Details

Date: 26 January 2021
Orbit: 601 x 958 km, 66.7° (Epoch: 02 March)

Event Time Altitude Azimuth Distance (km) Brightness Sun altitude
Rises 00:29:31 0° 204° (SSW) 3,556 10.2 -36.2°
Reaches altitude 10° 00:32:02 10° 200° (SSW) 2,645 9.4 -36.1°
Enters shadow 00:36:32 47° 177° (S) 1,250 7.3 -36.1°
Maximum altitude 00:38:15 64° 119° (ESE) 1,054 - -36.0°
Drops below altitude 10° 00:44:33 10° 37° (NE) 2,685 - -35.9°
Sets 00:47:07 0° 34° (NE) 3,614 - -35.8°
